Location: Chuathbaluk
(61.5726°N, 159.2454°W)
Time: 07:43:50
(UTC+00:00)

NUDT-PHONESAT - Pass Details

Date: 18 January 2021
Orbit: 479 x 498 km, 97.4° (Epoch: 08 March)

Event Time Altitude Azimuth Distance (km) Brightness Sun altitude
Rises 15:59:58 0° 26° (NNE) 2,612 ? -23.5°
Reaches altitude 10° 16:03:15 10° 58° (ENE) 1,722 ? -23.1°
Maximum altitude 16:04:48 12° 83° (E) 1,584 ? -22.9°
Drops below altitude 10° 16:06:20 10° 108° (ESE) 1,716 ? -22.7°
Sets 16:09:35 0° 140° (SE) 2,593 ? -22.3°
